Probability
3 4 7 7 5 4 4 4 3 2 1 1 1 0 0 0 1 2 4 6 7 5 4 4 4 4 4 2 1 0 1 2 3 3 2 2 2 2 1 1 1 3 5
5 5 7 7 6 4 4 4 3 3 2 2 2 1 1 1 3 4 5 5 5 5 5 5 5 4 4 2 1 0 0 1 2 2 2 2 2 2 2 2 2 3 3
6 5 6 7 6 4 4 4 4 4 3 3 3 3 3 4 5 6 6 5 4 4 5 5 4 4 4 3 2 1 1 1 1 1 2 2 3 2 2 2 3 3 2
2 3 5 7 5 3 2 3 3 3 4 4 4 4 5 6 5 5 6 7 6 5 4 5 5 5 5 5 5 4 4 3 3 2 3 4 4 2 2 3 3 3 3
1 2 5 7 5 3 1 2 3 3 4 4 4 4 5 4 3 4 6 8 9 8 5 5 7 8 8 8 8 8 7 6 5 5 5 5 5 4 4 4 3 3 3
4 4 6 8 6 4 2 2 3 3 4 3 2 3 3 3 2 3 4 5 8 9 8 8 9 9 10 10 11 10 9 8 7 6 6 6 6 6 6 5 4 3 2
7 6 7 8 7 6 4 3 3 2 2 1 1 2 3 3 3 3 2 2 4 8 9 10 10 11 11 11 12 12 11 9 7 7 6 6 6 6 6 6 4 2 2
9 8 8 8 7 7 6 5 4 3 1 0 1 2 2 2 2 2 1 2 3 6 7 8 10 14 14 13 13 14 13 11 10 8 8 7 7 6 6 6 4 3 2
11 10 9 7 6 6 6 6 5 3 2 1 0 1 1 2 2 1 1 2 3 4 6 6 10 16 17 15 15 16 15 14 12 10 9 8 7 6 6 6 5 4 3
12 11 9 9 8 6 6 6 6 5 4 3 2 2 2 3 3 3 3 2 3 4 6 7 11 16 19 19 20 19 17 14 11 9 8 7 7 6 6 5 5 4 4
13 12 11 11 10 8 6 6 7 7 7 6 6 6 5 5 6 6 5 4 4 6 9 11 12 15 18 19 21 22 17 12 9 7 7 8 7 7 6 6 5 5 5
14 14 13 12 12 10 8 7 8 8 9 10 10 10 9 9 9 8 7 6 6 8 13 15 15 16 17 18 20 19 15 10 7 6 6 7 8 7 6 5 4 4 4
15 16 17 15 14 13 12 11 11 11 11 12 14 15 15 14 12 11 10 9 8 9 12 14 16 16 15 16 18 16 12 8 5 4 4 4 5 6 5 4 3 2 2
16 19 22 21 18 17 17 16 16 16 16 15 16 19 21 19 16 15 14 13 11 11 10 11 15 15 14 15 15 14 11 7 4 2 1 1 2 2 2 2 1 1 1
18 23 26 24 20 18 20 21 21 21 20 19 19 20 23 24 20 18 18 18 17 15 11 11 15 16 16 15 12 13 13 8 3 2 0 0 0 0 0 0 0 0 0
23 26 28 26 23 21 23 25 24 23 23 22 21 20 24 26 24 21 21 23 23 20 16 15 18 18 18 15 13 15 17 11 5 3 1 1 0 0 0 0 0 0 0
29 30 31 30 27 26 27 28 25 23 24 24 23 22 25 27 26 25 25 26 27 25 22 20 20 21 20 18 18 20 20 14 9 5 3 2 1 0 0 0 0 0 0
34 34 34 33 31 29 29 30 28 25 25 25 25 26 26 26 27 28 28 29 29 27 25 24 23 24 24 22 21 21 19 16 12 7 4 3 1 0 0 0 0 0 0
37 35 33 32 32 31 30 30 28 27 27 27 28 29 27 26 27 27 27 27 27 25 25 25 25 26 27 26 23 20 18 17 14 9 5 3 2 0 0 0 0 0 0
37 35 33 32 32 30 28 28 27 26 27 28 29 30 29 27 24 22 21 22 22 22 23 23 24 26 28 29 26 22 18 18 17 12 7 4 2 1 0 0 0 0 0
33 34 32 30 28 24 21 21 23 24 26 28 29 29 28 24 19 16 16 16 18 20 22 22 23 26 28 29 27 22 18 17 18 15 10 5 3 2 1 0 0 0 0
32 31 30 27 22 16 12 13 17 20 23 26 28 27 23 18 14 12 12 11 13 17 20 22 24 26 27 28 27 21 17 17 18 16 12 8 5 3 1 0 0 0 0
32 31 30 26 20 14 8 7 11 15 19 24 26 25 20 16 13 12 11 9 10 13 16 20 22 24 26 27 26 22 17 16 16 16 13 9 7 4 2 1 1 0 0
30 30 29 26 21 15 8 4 7 12 16 21 24 24 19 15 13 12 11 11 12 13 14 15 18 19 20 21 21 19 15 13 14 15 13 11 8 6 4 3 2 1 0
25 26 26 24 22 18 10 4 6 13 16 19 22 22 19 15 11 9 10 12 14 15 12 11 12 13 13 12 13 12 11 10 11 13 13 11 10 8 6 5 4 3 2
22 24 25 23 22 20 13 4 5 13 18 19 20 20 19 15 10 8 8 10 14 15 12 10 10 10 10 9 8 8 8 8 9 10 12 12 10 10 7 5 5 4 3
Wind_Speed
3 3 2 2 2 2 2 2 2 1 1 1 1 2 2 3 5 5 5 10 10 9 8 7 7 6 7 7 7 6 6 6 5 5 5 5 5 5 5 5 5 5 5
3 2 2 2 2 2 2 2 2 1 1 1 1 1 2 3 3 5 5 7 9 9 8 8 7 7 7 8 8 8 7 7 6 6 6 6 5 5 6 6 6 6 6
3 2 2 2 2 2 2 2 1 1 2 2 1 1 1 2 2 3 5 4 5 8 9 8 8 7 7 7 8 8 8 7 7 6 6 6 6 6 7 7 7 7 7
2 1 1 2 1 1 1 1 1 1 1 1 1 1 1 2 3 3 3 4 5 5 8 10 9 8 9 9 9 9 8 8 7 6 6 6 6 6 6 7 7 7 7
2 1 2 1 0 1 1 1 2 1 0 0 1 1 1 2 2 3 3 4 5 5 5 8 10 10 10 10 9 8 8 9 8 7 7 7 6 6 6 6 6 6 7
2 1 1 1 1 1 1 2 1 0 0 1 1 1 1 2 3 2 2 2 3 4 5 6 6 7 10 9 7 8 8 8 8 8 7 7 6 5 5 5 6 6 6
2 2 2 1 1 1 1 0 0 1 0 0 1 1 0 1 2 2 2 1 2 3 3 5 4 3 4 8 7 7 7 8 8 8 7 6 6 6 5 6 6 6 6
1 1 1 1 1 1 0 0 1 1 1 1 1 0 0 1 1 1 2 2 2 2 2 4 4 3 3 3 5 8 7 7 7 7 7 6 6 5 5 6 7 6 6
1 1 1 1 1 0 0 0 0 1 1 0 0 1 1 0 1 0 1 1 1 1 1 2 3 3 3 3 4 6 8 7 6 6 6 5 5 4 4 5 5 6 6
1 1 1 1 1 1 1 1 1 1 0 1 0 1 1 1 1 0 0 1 1 1 0 0 1 2 2 2 3 5 7 6 6 5 5 4 4 3 4 4 5 5 5
1 1 1 1 1 1 1 1 1 1 1 1 0 0 1 1 1 2 1 1 1 1 1 1 1 1 2 2 3 5 7 6 5 5 4 4 4 4 3 4 4 5 5
1 1 1 1 1 1 0 0 1 1 1 2 2 1 1 0 1 1 1 1 1 0 1 1 2 1 1 2 3 5 7 7 6 5 4 4 4 4 4 4 4 4 5
1 1 1 1 0 0 0 1 1 1 1 1 1 1 1 1 1 0 1 1 1 1 1 1 1 0 1 2 2 6 6 7 6 5 5 4 4 4 4 4 4 4 4
1 1 1 1 1 1 0 0 0 1 0 1 1 1 1 2 2 1 0 0 1 1 1 1 0 1 0 2 3 5 4 6 6 6 5 4 4 4 4 4 4 4 4
0 1 1 1 1 0 0 0 0 0 0 1 1 1 1 1 2 2 2 1 1 1 2 2 0 1 0 1 3 3 3 5 6 6 5 5 5 4 4 4 4 4 4
1 1 1 1 0 0 0 0 0 0 0 0 1 1 2 2 2 2 2 2 1 1 2 1 1 1 0 1 2 2 2 5 7 7 7 6 6 5 5 5 5 4 4
1 1 0 0 0 0 1 1 1 0 1 1 1 1 1 2 2 2 2 2 1 1 1 2 1 1 0 1 1 2 3 3 4 7 8 7 7 6 6 6 5 5 5
1 1 1 1 1 1 1 1 2 1 1 1 1 1 2 2 2 2 2 2 2 2 1 3 2 2 1 1 2 2 2 2 2 6 8 8 8 7 6 6 5 5 6
1 0 1 1 1 1 1 1 1 1 1 1 1 1 1 1 2 2 3 3 3 3 2 2 3 2 1 1 1 2 2 2 2 3 6 8 7 7 7 6 6 6 6
1 0 0 1 1 1 1 1 2 2 1 1 1 1 1 1 2 3 3 3 3 3 3 3 3 1 1 1 1 1 2 2 2 1 1 3 5 6 7 6 6 6 6
1 0 0 1 1 1 2 2 3 2 1 1 1 1 1 1 2 2 3 3 3 3 3 3 3 2 1 1 2 2 2 2 2 1 1 2 2 2 3 5 5 5 5
1 0 0 0 1 2 3 4 3 3 1 2 1 2 1 1 2 2 3 3 3 3 3 3 3 2 2 2 2 3 2 2 2 1 1 2 2 2 3 3 5 6 6
1 1 1 0 1 2 3 4 4 3 2 1 1 2 3 2 1 2 3 4 4 4 4 3 4 4 3 2 2 3 3 3 4 2 2 3 2 2 2 3 7 8 7
1 1 1 1 1 1 2 3 4 3 2 2 2 1 1 2 3 3 3 3 3 3 4 4 4 4 4 2 3 4 4 4 3 2 1 2 2 2 2 2 6 8 8
1 1 1 1 1 1 2 3 3 2 2 2 2 1 1 1 3 4 3 3 4 4 4 5 6 6 6 6 5 3 3 2 3 2 1 2 2 2 2 3 4 8 8
2 2 1 1 2 2 2 1 2 2 2 2 2 1 1 1 2 2 3 3 4 4 5 5 5 6 6 6 7 5 3 3 3 2 1 2 2 2 2 2 2 3 4
Wind_Direction
85 89 91 104 113 117 121 110 115 115 114 139 118 116 107 113 118 123 138 157 161 166 171 178 183 187 192 192 191 193 199 198 197 200 200 196 198 205 211 214 218 220 218
88 91 98 87 97 97 94 102 109 111 96 77 59 66 89 101 118 132 141 157 165 171 179 184 186 192 199 202 200 203 206 206 205 203 203 202 204 210 219 225 228 229 227
82 89 99 99 100 115 116 117 134 143 142 139 122 105 99 115 127 133 143 154 169 180 184 187 191 201 208 209 207 209 212 212 213 210 205 204 210 218 227 230 231 231 230
84 80 87 89 97 116 127 122 86 72 87 109 147 171 144 150 166 160 156 164 170 176 188 193 198 205 214 217 217 215 212 213 215 210 206 209 216 223 231 235 234 233 232
77 71 87 72 87 78 62 83 85 57 60 111 186 181 171 175 173 182 171 178 173 166 171 189 197 205 214 217 220 216 214 213 210 213 215 220 224 226 227 231 229 230 231
74 27 95 57 50 59 41 55 74 156 231 247 209 140 186 174 172 173 182 172 161 166 171 173 187 207 213 207 206 207 208 206 208 212 215 218 221 219 222 227 231 235 236
47 40 46 57 61 79 65 49 292 236 205 100 79 14 329 210 161 160 172 168 164 165 166 170 182 186 188 195 201 200 204 207 206 210 214 218 223 226 229 232 234 240 241
42 95 55 40 49 87 38 276 239 265 219 147 148 107 26 353 345 178 161 175 169 172 170 170 171 169 170 165 178 193 200 203 208 211 215 218 224 227 228 235 234 236 239
78 39 57 49 334 64 301 240 298 225 266 210 143 161 163 158 276 345 135 146 136 153 180 172 166 170 175 165 171 185 192 198 202 205 211 213 218 224 227 235 235 237 239
115 103 84 78 24 41 346 303 19 300 265 265 225 184 183 161 163 265 357 113 159 166 196 157 153 160 166 156 150 155 174 186 194 200 203 205 213 224 232 240 243 240 238
161 113 86 66 70 75 29 351 17 352 1 337 304 267 230 203 206 188 213 246 219 183 175 182 188 179 173 166 151 146 159 171 179 192 200 209 218 227 233 240 241 240 241
156 138 136 99 73 101 111 18 360 34 23 357 344 342 322 270 217 191 206 230 230 247 192 180 189 178 162 141 153 150 160 167 175 184 193 206 220 230 232 236 242 245 247
148 117 121 120 113 172 177 68 63 41 20 349 333 328 327 325 330 278 209 255 256 266 301 215 156 177 184 126 128 142 158 167 179 190 198 203 213 223 230 234 243 245 250
69 106 111 142 172 219 108 102 180 177 95 308 330 345 328 332 323 313 242 257 288 290 307 291 129 159 170 134 143 161 167 179 188 192 193 201 212 219 228 233 236 241 244
35 83 103 116 99 67 29 33 300 339 5 303 316 314 290 306 312 313 302 268 238 271 285 275 305 87 47 85 148 181 177 183 192 197 197 206 219 224 228 230 232 236 235
17 41 34 49 34 5 353 249 265 309 154 222 263 319 330 306 304 301 300 301 283 238 265 279 278 263 295 284 188 218 197 187 198 204 201 208 220 224 225 223 226 232 234
229 207 219 296 295 325 318 306 271 268 276 271 267 271 288 309 318 321 322 322 317 308 268 290 301 299 313 293 251 236 225 206 203 204 203 206 213 217 218 220 223 225 229
225 235 229 254 257 278 303 299 293 272 277 294 303 310 306 306 314 323 322 319 312 290 252 272 277 277 262 257 253 245 246 234 226 203 202 204 210 213 217 222 221 221 222
214 258 278 292 315 327 316 316 308 297 285 287 296 295 300 310 313 312 307 311 310 309 286 261 269 263 260 287 296 289 278 270 258 205 203 204 208 210 210 212 216 218 218
206 202 260 319 345 347 337 314 301 283 291 288 288 292 309 319 312 303 298 306 305 304 299 287 278 278 293 305 284 274 275 268 269 268 226 204 203 208 208 204 208 212 213
204 148 348 345 334 317 331 330 299 277 276 293 295 311 316 348 359 331 323 328 320 315 308 301 298 314 310 322 290 275 276 280 277 249 232 223 192 198 203 207 209 211 209
193 144 142 16 336 333 351 355 334 310 296 282 305 318 287 11 348 325 320 318 310 302 308 300 296 299 306 305 302 289 284 288 276 258 252 247 197 207 199 197 200 205 206
191 225 247 151 99 359 349 342 324 299 294 288 292 299 300 324 350 312 298 289 289 283 273 275 281 283 288 294 289 286 283 278 267 262 252 258 235 223 209 197 192 196 201
205 223 210 194 159 330 331 322 309 277 280 287 282 284 301 326 322 326 303 295 285 283 265 255 260 266 268 273 276 272 267 272 272 271 259 256 252 244 218 196 200 201 207
219 222 212 208 198 300 310 306 300 273 272 274 260 260 262 289 333 336 316 304 296 290 283 264 251 255 258 263 265 280 284 281 276 265 297 271 267 267 232 206 205 207 214
227 220 213 223 233 234 238 256 281 271 279 280 260 214 183 249 294 304 294 294 296 305 308 302 280 260 251 248 241 232 248 264 273 268 282 286 279 296 278 234 198 205 217